Regional Weather Roundup
Issued by NWS State College, PA

Home | Current Version | Previous Version | Text Only | Print | Product List | Glossary Off
Versions: 1 2 3 4 5 6 7 8 9 10 11 12 13 14 15 16 17 18 19 20 21 22 23 24 25 26 27 28 29 30 31 32 33 34 35 36 37 38 39 40 41 42 43 44 45 46 47 48 49 50

832
ASUS41 KCTP 230003
RWRCTP

REGIONAL WEATHER ROUNDUP
NATIONAL WEATHER SERVICE STATE COLLEGE PA
700 PM EST WED NOV 22 2017

Note: "fair" indicates few or no clouds below 12,000 feet with no
significant weather and/or obstructions to visibility.

* = STATION THAT DOES NOT REPORT PRECIPITATION /E.G. RAIN...SNOW...ETC/
    THUNDER OR FOG.

PAZ002>004-007>009-013>016-020>023-029>032-230100-
WESTERN PENNSYLVANIA

CITY           SKY/WX    TMP DP  RH WIND       PRES   REMARKS
ERIE           CLOUDY    34  20  56 NW10      30.24R
MEADVILLE      CLOUDY    29  23  78 W7        30.22S
FRANKLIN*      FLURRIES  28  24  85 W6        30.21S
NEW CASTLE     CLOUDY    31  21  66 W5        30.26R
BEAVER COUNTY  CLOUDY   N/A N/A N/A NW5       30.24S
BUTLER*        CLOUDY    31  21  66 NW3       30.24R
PITTSBURGH INT CLOUDY    32  22  66 N10       30.24R
PITTSBURGH     CLOUDY    32  20  61 N10G20    30.22S
INDIANA*       CLOUDY    32  21  64 N9        30.24R
LATROBE        CLOUDY    32  19  59 NW13      30.23R
WASHINGTON CO* CLOUDY    32  22  66 N8        30.27R
$$

PAZ004>006-010>012-017>019-024>028-033>037-041-042-045-046-049>053-230100-
CENTRAL PENNSYLVANIA

CITY           SKY/WX    TMP DP  RH WIND       PRES   REMARKS
BRADFORD       CLOUDY    27  20  75 NW10      30.14R
DUBOIS         CLOUDY    29  20  69 NW8       30.16R
CLEARFIELD     CLOUDY    31  20  63 NW10G24   30.17R
JOHNSTOWN      CLOUDY    28  20  71 NW15G22   30.13R
ALTOONA        CLOUDY    34  22  61 NW14G23   30.16R
STATE COLLEGE  CLOUDY    32  21  64 SW18      30.16R
WILLIAMSPORT   CLOUDY    37  20  50 W12       30.15R
SELINSGROVE    CLOUDY    37  22  54 NW13G22   30.16R
FT INDIANTOWN  CLOUDY    38  20  49 NW12G20   30.11S
CAPITAL CITY   MOCLDY    41  21  44 NW13G23   30.14R
HARRISBURG     MOCLDY    40  22  48 N16       30.13R
YORK           CLEAR     36  24  62 NW10      30.13R
$$

PAZ038>040-043-044-047-048-054-055-060>062-067>071-230100-
EASTERN PENNSYLVANIA

CITY           SKY/WX    TMP DP  RH WIND       PRES   REMARKS
SCRANTON       CLOUDY    34  21  59 N22G30    30.10R
MOUNT POCONO   CLOUDY    29  20  69 NW12G26   30.02R
ALLENTOWN      CLOUDY    39  23  52 NW17G31   30.09R
QUAKERTOWN*    CLOUDY    37  25  60 NW14G21   30.09R
READING        CLOUDY    40  26  57 NW14G25   30.10R
LANCASTER      CLOUDY    40  25  55 NW12      30.11R
COATESVILLE    CLEAR     39  25  56 NW15G25   30.08R
POTTSTOWN      CLOUDY    39  23  52 NW13G20   30.10R
BLUE BELL      MOCLDY    39  27  60 NW6       30.09R
DOYLESTOWN     MOCLDY    39  24  55 NW13G22   30.06R
WILLOW GROVE   NOT AVBL
NORTH PHILA    PTCLDY    43  25  49 NW12G23   30.08R
PHILADELPHIA   PTCLDY    44  24  45 NW16G25   30.08R
$$




USA.gov is the U.S. government's official web portal to all federal, state and local government web resources and services.